�N����,����,����,����,����,�C��,���x,�~����,�S�V����,�ő�u�ԕ���,,,,,
,,,,,,,,,����,����,����,�N��,,
yyyy/mm/dd,hh:mm:ss,(16),16����,m/s,��,%,mm,KW/�u,(16),16����,m/s,Time,,
2019/12/1,1:00:00,14,�k��,1.7,-4.4,79.7,0,0,14,�k��,3,6,,
2019/12/1,2:00:00,13,���k��,1.5,-4.5,82.3,0,0,13,���k��,3.6,11,,
2019/12/1,3:00:00,13,���k��,2.3,-4.8,83.1,0,0,13,���k��,3.3,58,,
2019/12/1,4:00:00,13,���k��,1.9,-7.2,87.1,0,0,13,���k��,3.2,1,,
2019/12/1,5:00:00,13,���k��,1.2,-6.5,87.7,0,0,14,�k��,4,23,,
2019/12/1,6:00:00,13,���k��,1.2,-5.6,87.2,0,0,12,��,3.9,12,,
2019/12/1,7:00:00,13,���k��,2.4,-5.7,89.3,0,0.01,13,���k��,3.6,25,,
2019/12/1,8:00:00,13,���k��,1.3,-4.4,85.7,0,0.06,13,���k��,3.4,9,,
2019/12/1,9:00:00,13,���k��,2,-1.6,78.3,0,0.13,12,��,2.7,51,,
2019/12/1,10:00:00,15,�k�k��,0.7,1.4,68.4,0,0.19,13,���k��,3.1,23,,
2019/12/1,11:00:00,12,��,0.8,2.6,66.5,0,0.21,11,���쐼,2,58,,
2019/12/1,12:00:00,8,��,2.9,7.9,64.5,0,0.36,6,�쓌,5.7,54,,
2019/12/1,13:00:00,9,��쐼,3.6,7.2,80.1,0,0.23,9,��쐼,8.2,28,,
2019/12/1,14:00:00,9,��쐼,5.3,8.2,76.8,0,0.09,8,��,11.5,37,,
2019/12/1,15:00:00,9,��쐼,5,8.2,72.4,0,0.06,9,��쐼,11.2,2,,
2019/12/1,16:00:00,9,��쐼,3.7,8.2,72.3,0,0.02,9,��쐼,9.5,1,,
2019/12/1,17:00:00,9,��쐼,2.9,8.7,73.3,0,0,9,��쐼,8.2,38,,
2019/12/1,18:00:00,9,��쐼,2.9,8.8,71.4,0,0,11,���쐼,8,18,,
2019/12/1,19:00:00,14,�k��,4.8,1.3,87.9,0,0,13,���k��,7.8,55,,
2019/12/1,20:00:00,13,���k��,3.9,0.8,90.3,0,0,14,�k��,7.3,30,,
2019/12/1,21:00:00,13,���k��,2.5,0.6,93,0,0,13,���k��,5.5,4,,
2019/12/1,22:00:00,14,�k��,0.9,-1.8,94.3,0,0,14,�k��,4.7,30,,
2019/12/1,23:00:00,-3.4,#N/A,97.6,0,0,,,,,,,,
2019/12/1,0:00:00,13,���k��,1.6,-2.6,99.9,0,0,11,���쐼,3.2,56,,
2019/12/2,1:00:00,13,���k��,1.5,-2.8,99,0,0,12,��,3.5,3,,
2019/12/2,2:00:00,14,�k��,1.8,-1.1,98.7,0,0,12,��,2.8,19,,
2019/12/2,3:00:00,13,���k��,0.9,-0.6,97.8,0,0,14,�k��,2.8,41,,
2019/12/2,4:00:00,14,�k��,0.7,-0.3,97.3,0,0,13,���k��,2.8,15,,
2019/12/2,5:00:00,14,�k��,1.5,0.6,96,0,0,14,�k��,3.1,50,,
2019/12/2,6:00:00,14,�k��,1.8,1.3,94.2,0,0,14,�k��,3,34,,
2019/12/2,7:00:00,14,�k��,1.9,1.9,98.1,0.5,0,14,�k��,3,36,,
2019/12/2,8:00:00,15,�k�k��,2.7,2.5,97.6,1.5,0.01,14,�k��,4.7,42,,
2019/12/2,9:00:00,14,�k��,3,1.7,98,3.5,0.01,13,���k��,7.5,33,,
2019/12/2,10:00:00,14,�k��,2.9,1.9,98.5,3,0.02,13,���k��,5.3,11,,
2019/12/2,11:00:00,14,�k��,3,2,98.6,2.5,0.03,14,�k��,5.8,19,,
2019/12/2,12:00:00,14,�k��,3.7,1.8,98.1,0.5,0.03,14,�k��,8,23,,
2019/12/2,13:00:00,14,�k��,4.1,1.9,98.7,3,0.02,15,�k�k��,8.1,43,,
2019/12/2,14:00:00,14,�k��,3,2,98.2,1.5,0.03,13,���k��,8.9,7,,
2019/12/2,15:00:00,14,�k��,3.3,1.8,98,3,0.02,13,���k��,6.7,0,,
2019/12/2,16:00:00,14,�k��,2.4,1.8,98.6,2.5,0.01,14,�k��,5.3,37,,
2019/12/2,17:00:00,14,�k��,2,1.7,99.2,2,0,14,�k��,4.6,8,,
2019/12/2,18:00:00,12,��,1.4,1.6,99.4,1,0,14,�k��,3.6,14,,
2019/12/2,19:00:00,13,���k��,1.6,1.5,99.7,0.5,0,14,�k��,4,29,,
2019/12/2,20:00:00,14,�k��,1.4,0.9,100,0.5,0,13,���k��,4.2,3,,
2019/12/2,21:00:00,14,�k��,2.8,0.7,100,0,0,13,���k��,3.8,58,,
2019/12/2,22:00:00,15,�k�k��,1.4,-0.3,100,0,0,13,���k��,4.3,10,,
2019/12/2,23:00:00,13,���k��,2.5,1.2,99.8,0,0,13,���k��,4.7,21,,
2019/12/2,0:00:00,13,���k��,2.5,0.7,98.4,0,0,13,���k��,6.6,36,,
2019/12/3,1:00:00,13,���k��,2.7,1.1,97.6,0,0,13,���k��,5.9,22,,
2019/12/3,2:00:00,16,�k,1.3,0.9,96.1,0,0,12,��,5.3,48,,
2019/12/3,3:00:00,15,�k�k��,3.1,0.6,92.3,0,0,1,�k�k��,5.3,56,,
2019/12/3,4:00:00,15,�k�k��,2.5,-0.1,91.5,0,0,10,�쐼,6.2,0,,
2019/12/3,5:00:00,14,�k��,1.3,0.2,92.9,0,0,1,�k�k��,4.5,3,,
2019/12/3,6:00:00,12,��,0.9,-2.8,95.4,0,0,13,���k��,5.5,22,,
2019/12/3,7:00:00,12,��,1.4,-2.4,98.5,0,0.02,13,���k��,4.1,14,,
2019/12/3,8:00:00,12,��,6.5,3.5,69.4,0,0.13,12,��,11.4,55,,
2019/12/3,9:00:00,12,��,2.3,1.5,90.3,0,0.23,13,���k��,9.5,33,,
2019/12/3,10:00:00,12,��,1.8,4,70.2,0,0.29,11,���쐼,12.7,17,,
2019/12/3,11:00:00,13,���k��,5.3,2.1,73.2,0,0.16,11,���쐼,16.9,21,,
2019/12/3,12:00:00,12,��,5.1,4,55.3,0,0.24,12,��,8.7,54,,
2019/12/3,13:00:00,12,��,8.7,2.5,40.9,0,0.4,12,��,14.4,49,,
2019/12/3,14:00:00,13,���k��,6.9,0.9,49.2,0,0.29,13,���k��,12.9,24,,
2019/12/3,15:00:00,13,���k��,4.3,-1.8,81.6,0,0.08,13,���k��,13.1,15,,
2019/12/3,16:00:00,12,��,7.9,-2.3,73.8,0,0.02,13,���k��,18.8,27,,
2019/12/3,17:00:00,10,�쐼,3.8,-3.3,87.8,0,0,12,��,11.9,5,,
2019/12/3,18:00:00,13,���k��,6.1,-1.7,60.2,0,0,12,��,12,34,,
2019/12/3,19:00:00,12,��,6.9,-2.1,61.5,0,0,13,���k��,11.3,22,,
2019/12/3,20:00:00,12,��,7.4,-2.7,73.9,0,0,13,���k��,12.2,6,,
2019/12/3,21:00:00,10,�쐼,2.3,-3.2,86,0,0,13,���k��,9.7,0,,
2019/12/3,22:00:00,10,�쐼,5.9,-2.4,75.6,0,0,10,�쐼,9.6,53,,
2019/12/3,23:00:00,9,��쐼,2.6,-3.3,89.6,0,0,11,���쐼,8.2,0,,
2019/12/3,0:00:00,12,��,6.1,-1.8,66.1,0,0,12,��,9.9,51,,
2019/12/4,1:00:00,13,���k��,7.5,-1.6,54.3,0,0,12,��,13.3,46,,
2019/12/4,2:00:00,12,��,6.4,-1.6,46.4,0,0,12,��,14.5,3,,
2019/12/4,3:00:00,12,��,6.4,-1.9,57.2,0,0,12,��,15.6,27,,
2019/12/4,4:00:00,12,��,5.9,-2.3,59.1,0,0,13,���k��,12.7,33,,
2019/12/4,5:00:00,12,��,7.2,-2.1,53.6,0,0,12,��,15.4,35,,
2019/12/4,6:00:00,12,��,11.5,-1.7,47.5,0,0,13,���k��,20.3,57,,
2019/12/4,7:00:00,13,���k��,10.8,-2.2,48.6,0,0.01,11,���쐼,21.3,35,,
2019/12/4,8:00:00,12,��,9.5,-1.6,47.9,0,0.13,13,���k��,17.1,49,,
2019/12/4,9:00:00,12,��,13.3,-1,33.6,0,0.3,12,��,21.3,54,,
2019/12/4,10:00:00,12,��,13.5,-1.3,37.7,0,0.43,12,��,23.4,50,,
2019/12/4,11:00:00,12,��,10.7,-1.1,38.8,0,0.5,13,���k��,18.2,59,,
2019/12/4,12:00:00,12,��,8.8,-1.7,45.5,0,0.5,13,���k��,16.7,4,,
2019/12/4,13:00:00,12,��,6.7,-2.7,61.8,0,0.42,12,��,13.9,22,,
2019/12/4,14:00:00,12,��,6.2,-2.9,60,0,0.3,13,���k��,12.6,9,,
2019/12/4,15:00:00,12,��,4.9,-3.7,62.2,0,0.15,13,���k��,12.6,20,,
2019/12/4,16:00:00,12,��,8.2,-3.4,45.4,0,0.02,12,��,13.8,42,,
2019/12/4,17:00:00,12,��,8.9,-3.7,35.9,0,0,13,���k��,14.6,52,,
2019/12/4,18:00:00,12,��,6.6,-4,45,0,0,12,��,16.9,40,,
2019/12/4,19:00:00,12,��,7.5,-4,47.8,0,0,13,���k��,13.4,26,,
2019/12/4,20:00:00,12,��,7.4,-3.7,46.9,0,0,12,��,13.9,59,,
2019/12/4,21:00:00,12,��,5.2,-4.2,47.8,0,0,13,���k��,13.9,28,,
2019/12/4,22:00:00,12,��,5.9,-4,40.1,0,0,13,���k��,10.8,45,,
2019/12/4,23:00:00,12,��,6.2,-4.2,42.1,0,0,12,��,9.1,59,,
2019/12/4,0:00:00,16,�k,1,-5.3,44.2,0,0,12,��,12,13,,
2019/12/5,1:00:00,13,���k��,0.9,-5.7,46.9,0,0,12,��,5.3,40,,
2019/12/5,2:00:00,-6.9,#N/A,57.8,0,0,,,,,,,,
2019/12/5,3:00:00,12,��,2.4,-6.3,55.7,0,0,13,���k��,7.3,18,,
2019/12/5,4:00:00,11,���쐼,4.2,-6.2,57.7,0,0,12,��,7.4,59,,
2019/12/5,5:00:00,11,���쐼,5.5,-4.7,52.1,0,0,11,���쐼,8.6,53,,
2019/12/5,6:00:00,12,��,3.1,-5.8,54.6,0,0,11,���쐼,8.1,11,,
2019/12/5,7:00:00,12,��,4,-6.6,61,0,0.01,12,��,5.4,59,,
2019/12/5,8:00:00,11,���쐼,1.5,-4.3,56.3,0,0.13,12,��,4.9,1,,
2019/12/5,9:00:00,11,���쐼,3.5,-1.6,38.8,0,0.3,11,���쐼,5.4,59,,
2019/12/5,10:00:00,13,���k��,4.2,-0.5,32.3,0,0.43,13,���k��,7,51,,
2019/12/5,11:00:00,13,���k��,4.9,0.6,30.1,0,0.51,12,��,7.6,5,,
2019/12/5,12:00:00,14,�k��,3.8,0.4,28.6,0,0.53,12,��,8.6,18,,
2019/12/5,13:00:00,15,�k�k��,2.6,1.5,30.2,0,0.48,13,���k��,6.2,40,,
2019/12/5,14:00:00,15,�k�k��,3.4,0.2,31.4,0,0.38,16,�k,7.8,7,,
2019/12/5,15:00:00,15,�k�k��,2.3,-0.7,35.9,0,0.22,14,�k��,6.6,15,,
2019/12/5,16:00:00,15,�k�k��,1.8,-2.4,47,0,0.06,14,�k��,5,7,,
2019/12/5,17:00:00,14,�k��,2.3,-4.8,60.7,0,0,13,���k��,3.8,43,,
2019/12/5,18:00:00,13,���k��,2.2,-6.3,69.3,0,0,13,���k��,3.4,9,,
2019/12/5,19:00:00,13,���k��,2.3,-7.4,75.3,0,0,12,��,4.5,43,,
2019/12/5,20:00:00,14,�k��,0.7,-9.8,77,0,0,13,���k��,3.5,6,,
2019/12/5,21:00:00,1,�k�k��,1.4,-9.8,79.3,0,0,13,���k��,2.9,15,,
2019/12/5,22:00:00,14,�k��,3.1,-8,77.8,0,0,14,�k��,4.5,48,,
2019/12/5,23:00:00,13,���k��,1.1,-10.6,86.7,0,0,14,�k��,5,7,,
2019/12/5,0:00:00,14,�k��,3.6,-8,79.3,0,0,14,�k��,4.9,55,,
2019/12/6,1:00:00,13,���k��,2.9,-11.1,79.3,0,0,14,�k��,4.9,33,,
2019/12/6,2:00:00,13,���k��,2.1,-10.9,86.6,0,0,14,�k��,3.3,51,,
2019/12/6,3:00:00,13,���k��,1.8,-10.3,86.6,0,0,13,���k��,3.7,33,,
2019/12/6,4:00:00,13,���k��,2.1,-11.8,87.6,0,0,12,��,2.9,55,,
2019/12/6,5:00:00,14,�k��,1.3,-11.9,87.6,0,0,14,�k��,3.3,10,,
2019/12/6,6:00:00,13,���k��,2.2,-11.3,91,0,0,14,�k��,3,58,,
2019/12/6,7:00:00,14,�k��,3.5,-8.8,79.6,0,0.01,14,�k��,5.1,53,,
2019/12/6,8:00:00,13,���k��,2.7,-7.4,78.4,0,0.13,14,�k��,4.4,0,,
2019/12/6,9:00:00,14,�k��,1.7,-4,66.3,0,0.3,13,���k��,3.6,5,,
2019/12/6,10:00:00,12,��,1.3,-0.7,48,0,0.44,13,���k��,2.7,23,,
2019/12/6,11:00:00,8,��,0.9,0.9,34.9,0,0.51,8,��,2.6,47,,
2019/12/6,12:00:00,7,��쓌,1.3,1.9,31.7,0,0.53,13,���k��,3.7,15,,
2019/12/6,13:00:00,5,���쓌,2.6,1.5,34.8,0,0.48,5,���쓌,4.2,51,,
2019/12/6,14:00:00,5,���쓌,1.8,2,33.6,0,0.38,4,��,4.4,34,,
2019/12/6,15:00:00,3,���k��,1.8,0.6,40.8,0,0.23,4,��,4.2,13,,
2019/12/6,16:00:00,14,�k��,1.2,-2.3,55.1,0,0.06,3,���k��,3.9,27,,
2019/12/6,17:00:00,14,�k��,1.1,-3.6,55.9,0,0,14,�k��,2.6,29,,
2019/12/6,18:00:00,1,�k�k��,0.9,-8,68.5,0,0,14,�k��,3.5,5,,
2019/12/6,19:00:00,14,�k��,1.3,-9.1,86,0,0,13,���k��,2.2,42,,
2019/12/6,20:00:00,14,�k��,2.2,-7.9,79.3,0,0,15,�k�k��,3.6,45,,
2019/12/6,21:00:00,12,��,1.9,-10.6,85.5,0,0,14,�k��,3.3,0,,
2019/12/6,22:00:00,10,�쐼,1.8,-11.8,86.6,0,0,13,���k��,3.5,10,,
2019/12/6,23:00:00,13,���k��,2.3,-10.7,88.4,0,0,13,���k��,3.4,29,,
2019/12/6,0:00:00,13,���k��,1.6,-11.2,88.3,0,0,13,���k��,3.1,37,,
2019/12/7,1:00:00,13,���k��,2.2,-10.6,89.3,0,0,14,�k��,3.4,19,,
2019/12/7,2:00:00,13,���k��,1.5,-11.2,89.8,0,0,14,�k��,3.5,3,,
2019/12/7,3:00:00,13,���k��,2.1,-11.4,88,0,0,13,���k��,3.2,59,,
2019/12/7,4:00:00,14,�k��,2.8,-9.8,79.7,0,0,14,�k��,4.7,46,,
2019/12/7,5:00:00,13,���k��,1.8,-12.5,89.5,0,0,14,�k��,3.1,2,,
2019/12/7,6:00:00,14,�k��,1.7,-11.7,89.4,0,0,13,���k��,3.1,56,,
2019/12/7,7:00:00,12,��,2.5,-13.2,87,0,0.01,12,��,3.2,59,,
2019/12/7,8:00:00,13,���k��,0.9,-8.5,82.1,0,0.14,13,���k��,3.5,5,,
2019/12/7,9:00:00,1,�k�k��,0.5,-2.2,65.6,0,0.3,14,�k��,3.3,14,,
2019/12/7,10:00:00,3,���k��,2.7,0.7,57.8,0,0.43,3,���k��,4,40,,
2019/12/7,11:00:00,3,���k��,2.5,2.2,50.3,0,0.5,3,���k��,4.2,17,,
2019/12/7,12:00:00,5,���쓌,2.6,3.4,50.6,0,0.52,5,���쓌,4.4,54,,
2019/12/7,13:00:00,3,���k��,3.1,3.6,53.7,0,0.47,4,��,5.3,46,,
2019/12/7,14:00:00,3,���k��,3,3.4,56.8,0,0.37,4,��,5.4,38,,
2019/12/7,15:00:00,3,���k��,2.7,1.8,63.7,0,0.22,2,�k��,4.8,48,,
2019/12/7,16:00:00,2,�k��,2.5,-2.5,72.5,0,0.04,2,�k��,3.4,59,,
2019/12/7,17:00:00,12,��,0.9,-4.4,84.7,0,0,2,�k��,3.5,2,,
2019/12/7,18:00:00,14,�k��,0.6,-3.9,87.6,0,0,13,���k��,3.6,5,,
2019/12/7,19:00:00,12,��,1.3,-0.3,88.8,0,0,12,��,2.4,35,,
2019/12/7,20:00:00,10,�쐼,0.8,1.2,96.7,0.5,0,7,��쓌,3.3,42,,
2019/12/7,21:00:00,14,�k��,0.7,-0.3,98.5,0,0,14,�k��,5.7,21,,
2019/12/7,22:00:00,10,�쐼,3.8,2.4,88.5,0.5,0,10,�쐼,7.2,59,,
2019/12/7,23:00:00,13,���k��,3.3,-1,90,0,0,10,�쐼,8.8,0,,
2019/12/7,0:00:00,14,�k��,3,-2.5,88.2,0,0,14,�k��,7.3,28,,
2019/12/8,1:00:00,13,���k��,5.4,-0.8,75.1,0,0,13,���k��,9.1,59,,
2019/12/8,2:00:00,13,���k��,4.5,-2.3,60.1,0,0,12,��,15.5,22,,
2019/12/8,3:00:00,12,��,5.2,-1.9,54.3,0,0,11,���쐼,10.4,59,,
2019/12/8,4:00:00,12,��,6.3,-2.5,49.2,0,0,11,���쐼,12.6,20,,
2019/12/8,5:00:00,13,���k��,4.8,-4.3,59,0,0,11,���쐼,10.5,2,,
2019/12/8,6:00:00,15,�k�k��,1.3,-5.7,72,0,0,13,���k��,5.2,2,,
2019/12/8,7:00:00,14,�k��,1.9,-8.6,78.8,0,0.01,11,���쐼,4.1,35,,
2019/12/8,8:00:00,15,�k�k��,1.5,-4.7,59.5,0,0.12,12,��,3.9,15,,
2019/12/8,9:00:00,15,�k�k��,2.1,-3.3,51.8,0,0.27,15,�k�k��,4,30,,
2019/12/8,10:00:00,15,�k�k��,1.8,-2.5,47.4,0,0.4,16,�k,4.4,44,,
2019/12/8,11:00:00,12,��,0.4,-2.1,40.6,0,0.49,14,�k��,3.9,6,,
2019/12/8,12:00:00,13,���k��,3.5,-1,48.7,0,0.52,12,��,6,49,,
2019/12/8,13:00:00,13,���k��,4.3,-0.8,48.3,0,0.48,15,�k�k��,7.4,14,,
2019/12/8,14:00:00,13,���k��,5.5,-1.1,39,0,0.37,13,���k��,8.3,53,,
2019/12/8,15:00:00,14,�k��,2,-1.9,40.5,0,0.22,12,��,7.3,9,,
2019/12/8,16:00:00,16,�k,2.1,-4.4,54.9,0,0.03,14,�k��,4.3,22,,
2019/12/8,17:00:00,1,�k�k��,3,-5.5,79.1,0,0,1,�k�k��,6.6,32,,
2019/12/8,18:00:00,15,�k�k��,2.1,-6.5,78.3,0,0,16,�k,6.5,35,,
2019/12/8,19:00:00,16,�k,1.9,-7,69.4,0,0,13,���k��,4.7,24,,
2019/12/8,20:00:00,16,�k,4.6,-6.6,57.8,0,0,15,�k�k��,9.4,32,,
2019/12/8,21:00:00,15,�k�k��,3.8,-7.2,58.2,0,0,16,�k,10,4,,
2019/12/8,22:00:00,14,�k��,2.4,-8.7,63.4,0,0,15,�k�k��,7.5,14,,
2019/12/8,23:00:00,13,���k��,3.5,-10.3,74.9,0,0,14,�k��,4.6,59,,
2019/12/8,0:00:00,13,���k��,3.2,-12.5,80.4,0,0,13,���k��,4.2,57,,
2019/12/9,1:00:00,13,���k��,3.5,-10.9,75.8,0,0,14,�k��,4.8,55,,
2019/12/9,2:00:00,13,���k��,3.1,-11.9,76,0,0,13,���k��,5.1,14,,
2019/12/9,3:00:00,13,���k��,3,-13.7,83.9,0,0,13,���k��,4.4,2,,
2019/12/9,4:00:00,13,���k��,2.9,-13.8,84.2,0,0,13,���k��,4.4,13,,
2019/12/9,5:00:00,14,�k��,2.5,-12.1,79.6,0,0,14,�k��,4.6,26,,
2019/12/9,6:00:00,13,���k��,3.1,-14,81.1,0,0,12,��,4.2,44,,
2019/12/9,7:00:00,13,���k��,2.7,-12.3,76.5,0,0.01,13,���k��,4.9,51,,
2019/12/9,8:00:00,13,���k��,2.2,-9.4,69.7,0,0.13,12,��,3.6,41,,
2019/12/9,9:00:00,14,�k��,1.7,-6.6,59.8,0,0.29,14,�k��,4.3,42,,
2019/12/9,10:00:00,15,�k�k��,1.5,-3.4,55.2,0,0.42,14,�k��,3,7,,
2019/12/9,11:00:00,3,���k��,0.7,-1.2,52.5,0,0.49,13,���k��,2.6,15,,
2019/12/9,12:00:00,6,�쓌,2.2,-0.9,55.2,0,0.51,5,���쓌,3.8,53,,
2019/12/9,13:00:00,6,�쓌,1.4,-0.7,58.4,0,0.46,8,��,3.2,33,,
2019/12/9,14:00:00,2,�k��,0.5,0.3,62.1,0,0.36,5,���쓌,2.6,0,,
2019/12/9,15:00:00,16,�É�,0.1,0.2,64.3,0,0.21,16,�k,1.5,7,,
2019/12/9,16:00:00,4,��,0.5,-3.4,76,0,0.06,1,�k�k��,1.3,18,,
2019/12/9,17:00:00,12,��,1.5,-7.8,89.9,0,0,12,��,2.5,59,,
2019/12/9,18:00:00,13,���k��,1.5,-8.1,90.5,0,0,13,���k��,2.8,3,,
2019/12/9,19:00:00,14,�k��,2.5,-5.3,84.6,0,0,14,�k��,3.9,32,,
2019/12/9,20:00:00,13,���k��,2.8,-6,88.8,0,0,13,���k��,3.6,58,,
2019/12/9,21:00:00,14,�k��,1,-5.7,87.5,0,0,12,��,3.2,40,,
2019/12/9,22:00:00,14,�k��,2.5,-3.8,80.1,0,0,14,�k��,3.6,57,,
2019/12/9,23:00:00,12,��,1.8,-4.7,87.2,0,0,12,��,4,38,,
2019/12/9,0:00:00,13,���k��,2.2,-5.1,90.5,0,0,13,���k��,3.1,51,,
2019/12/10,1:00:00,14,�k��,1.8,-3.9,84.4,0,0,14,�k��,3.8,23,,
2019/12/10,2:00:00,13,���k��,2.2,-4,85.9,0,0,14,�k��,4.1,23,,
2019/12/10,3:00:00,14,�k��,1.9,-3.6,80.9,0,0,15,�k�k��,4,41,,
2019/12/10,4:00:00,14,�k��,2.6,-3.1,72.4,0,0,15,�k�k��,4.8,56,,
2019/12/10,5:00:00,14,�k��,1.9,-3.6,70.6,0,0,14,�k��,5.4,23,,
2019/12/10,6:00:00,14,�k��,3,-3.7,74,0,0,15,�k�k��,5.2,55,,
2019/12/10,7:00:00,14,�k��,2.5,-2.9,71,0,0.01,15,�k�k��,5.2,13,,
2019/12/10,8:00:00,14,�k��,2.2,-2.2,69.2,0,0.05,14,�k��,5,43,,
2019/12/10,9:00:00,14,�k��,3.1,-0.7,64.6,0,0.19,14,�k��,4.8,58,,
2019/12/10,10:00:00,14,�k��,2.8,2.3,58.9,0,0.35,14,�k��,4.8,33,,
2019/12/10,11:00:00,16,�k,0.9,4.6,58.5,0,0.47,14,�k��,4.3,28,,
2019/12/10,12:00:00,6,�쓌,2.2,5.6,61.4,0,0.43,5,���쓌,3.6,55,,
2019/12/10,13:00:00,10,�쐼,1.3,5.7,63.3,0,0.39,10,�쐼,3.7,56,,
2019/12/10,14:00:00,7,��쓌,1.5,6.3,67.7,0,0.35,11,���쐼,3,14,,
2019/12/10,15:00:00,12,��,1.5,4.5,64.6,0,0.2,12,��,3.8,40,,
2019/12/10,16:00:00,16,�k,1.7,1.7,82.5,0,0.03,1,�k�k��,3,56,,
2019/12/10,17:00:00,2,�k��,0.5,-0.1,93.1,0,0,1,�k�k��,3,4,,
2019/12/10,18:00:00,12,��,0.4,-4.7,91.6,0,0,6,�쓌,1.9,40,,
2019/12/10,19:00:00,12,��,2.7,-3,96.3,0,0,11,���쐼,3.7,21,,
2019/12/10,20:00:00,9,��쐼,3.2,6.1,75.1,0,0,10,�쐼,5.9,47,,
2019/12/10,21:00:00,9,��쐼,2.5,5.5,81.7,0,0,9,��쐼,5.7,2,,
2019/12/10,22:00:00,9,��쐼,1.9,6.5,79.9,0,0,8,��,4.3,29,,
2019/12/10,23:00:00,0.8,�k,91.2,0,0,,,,,,,,
2019/12/10,0:00:00,11,���쐼,0.8,2.9,86.9,0,0,10,�쐼,3.4,40,,
2019/12/11,1:00:00,1,�k�k��,1.3,-1,92,0,0,16,�k,2.2,46,,
2019/12/11,2:00:00,6,�쓌,1.8,3,97.3,0,0,2,�k��,3.5,30,,
2019/12/11,3:00:00,13,���k��,2.5,-1.5,98.3,0,0,13,���k��,3.8,56,,
2019/12/11,4:00:00,13,���k��,1,-2,98,0,0,12,��,4.7,52,,
2019/12/11,5:00:00,14,�k��,1.2,-1.4,99.2,0,0,12,��,3.1,8,,
2019/12/11,6:00:00,16,�k,0.4,0.4,96.3,0,0,12,��,3.1,5,,
2019/12/11,7:00:00,13,���k��,2.4,0.8,94.7,0,0.01,12,��,3.7,53,,
2019/12/11,8:00:00,12,��,1.6,1.9,89.8,0,0.08,12,��,5.9,9,,
2019/12/11,9:00:00,13,���k��,1.5,5.9,80.1,0,0.23,12,��,4.1,39,,
2019/12/11,10:00:00,3,���k��,1.2,8.9,73.4,0,0.36,4,��,2.6,37,,
2019/12/11,11:00:00,6,�쓌,1.2,10.6,68.3,0,0.44,4,��,2.6,14,,
2019/12/11,12:00:00,6,�쓌,1.6,10.7,63.7,0,0.43,7,��쓌,3.6,11,,
2019/12/11,13:00:00,2,�k��,1.7,10.4,67.9,0,0.37,4,��,4.2,16,,
2019/12/11,14:00:00,2,�k��,1.8,8.7,73.1,0,0.19,2,�k��,2.9,53,,
2019/12/11,15:00:00,2,�k��,1.5,7.7,78.1,0,0.09,5,���쓌,2.2,11,,
2019/12/11,16:00:00,1,�k�k��,1.2,6.1,83.3,0,0.02,16,�k,2.8,33,,
2019/12/11,17:00:00,1,�k�k��,0.5,4.9,86.6,0,0,2,�k��,2.3,26,,
2019/12/11,18:00:00,13,���k��,0.8,2.3,92.4,0,0,12,��,1.8,59,,
2019/12/11,19:00:00,9,��쐼,2.9,8.8,95.2,0,0,9,��쐼,5.5,54,,
2019/12/11,20:00:00,8,��,3.3,9.2,86.4,0,0,8,��,7.5,44,,
2019/12/11,21:00:00,8,��,2.5,8.3,92.4,0,0,8,��,5.2,20,,
2019/12/11,22:00:00,13,���k��,2.1,7.3,96.1,0,0,7,��쓌,5.6,6,,
2019/12/11,23:00:00,13,���k��,2.5,4.6,98.8,0,0,14,�k��,3.6,59,,
2019/12/11,0:00:00,14,�k��,0.4,3.8,97.2,0,0,14,�k��,3.5,0,,
2019/12/12,1:00:00,14,�k��,2.1,4.3,97,0,0,13,���k��,3.1,48,,
2019/12/12,2:00:00,13,���k��,0.9,3.5,98.5,0,0,13,���k��,2.5,27,,
2019/12/12,3:00:00,13,���k��,1.3,3.8,99.1,0,0,12,��,2.6,14,,
2019/12/12,4:00:00,12,��,2.9,3.1,99.9,0,0,12,��,3.8,51,,
2019/12/12,5:00:00,14,�k��,1.1,2.7,99.8,0,0,13,���k��,6,29,,
2019/12/12,6:00:00,13,���k��,2.8,3.2,100,0,0,13,���k��,5.6,40,,
2019/12/12,7:00:00,11,���쐼,3,4.9,100,0,0.01,13,���k��,5.9,30,,
2019/12/12,8:00:00,10,�쐼,4.5,8.8,86.9,0,0.09,9,��쐼,9.5,40,,
2019/12/12,9:00:00,9,��쐼,6,9.2,67.7,0,0.19,13,���k��,13.9,35,,
2019/12/12,10:00:00,10,�쐼,11.2,8.4,49.7,0,0.28,10,�쐼,17.2,59,,
2019/12/12,11:00:00,10,�쐼,6.7,7.9,43.2,0,0.17,10,�쐼,18.5,2,,
2019/12/12,12:00:00,8,��,5.3,4.8,75.6,0,0.1,11,���쐼,19,18,,
2019/12/12,13:00:00,8,��,8.3,3.2,76.5,0,0.24,9,��쐼,18.4,37,,
2019/12/12,14:00:00,12,��,5.8,2.4,82.5,0,0.2,12,��,16.2,18,,
2019/12/12,15:00:00,10,�쐼,5.2,0.8,87.7,0,0.06,11,���쐼,9.8,18,,
2019/12/12,16:00:00,10,�쐼,4.7,-0.2,85.5,0,0.02,10,�쐼,9.3,35,,
2019/12/12,17:00:00,10,�쐼,6.3,-0.2,69.9,0,0,11,���쐼,11.8,51,,
2019/12/12,18:00:00,10,�쐼,4.8,-1.1,60.1,0,0,11,���쐼,8.9,1,,
2019/12/12,19:00:00,10,�쐼,5.8,-0.4,57.9,0,0,10,�쐼,11.1,46,,
2019/12/12,20:00:00,10,�쐼,6.6,-1.1,63.8,0,0,10,�쐼,10.8,35,,
2019/12/12,21:00:00,10,�쐼,5,-1.7,56.6,0,0,10,�쐼,11.3,16,,
2019/12/12,22:00:00,12,��,1.2,-3.3,56.3,0,0,10,�쐼,7.8,2,,
2019/12/12,23:00:00,1,�k�k��,2.1,-4,61.7,0,0,13,���k��,3.6,21,,
2019/12/12,0:00:00,12,��,2.2,-4.1,60.2,0,0,12,��,3.4,50,,
2019/12/13,1:00:00,4,��,0.8,-6.9,64.4,0,0,13,���k��,3.5,2,,
2019/12/13,2:00:00,8,��,0.7,-4.2,58.4,0,0,2,�k��,4.1,19,,
2019/12/13,3:00:00,10,�쐼,1.8,-6.9,69.9,0,0,10,�쐼,2.7,54,,
2019/12/13,4:00:00,14,�k��,1.7,-5.4,55.9,0,0,14,�k��,3.8,39,,
2019/12/13,5:00:00,16,�k,1.7,-5.4,59.9,0,0,13,���k��,2.7,11,,
2019/12/13,6:00:00,11,���쐼,1.5,-10.6,84.7,0,0,15,�k�k��,3.2,2,,
2019/12/13,7:00:00,14,�k��,1.1,-9.9,79.8,0,0.01,1,�k�k��,2.8,13,,
2019/12/13,8:00:00,13,���k��,1.5,-5.3,79.7,0,0.11,13,���k��,3.2,47,,
2019/12/13,9:00:00,16,�k,0.5,-0.9,52.8,0,0.28,13,���k��,1.9,37,,
2019/12/13,10:00:00,11,���쐼,1.4,1.3,44.1,0,0.41,12,��,2.3,58,,
2019/12/13,11:00:00,13,���k��,0.9,1.9,34.3,0,0.49,3,���k��,2.5,44,,
2019/12/13,12:00:00,14,�k��,1.6,2.4,30.9,0,0.51,13,���k��,3,54,,
2019/12/13,13:00:00,11,���쐼,2,3,33.6,0,0.46,12,��,3.8,42,,
2019/12/13,14:00:00,14,�k��,2.1,3,32.6,0,0.36,13,���k��,4.3,36,,
2019/12/13,15:00:00,14,�k��,0.8,2.7,38.3,0,0.21,14,�k��,4.1,1,,
2019/12/13,16:00:00,14,�k��,0.3,-0.3,46.9,0,0.05,14,�k��,1.9,25,,
2019/12/13,17:00:00,16,�k,0.5,-4.8,72.8,0,0,13,���k��,1.5,41,,
2019/12/13,18:00:00,12,��,0.4,-7.8,78.5,0,0,11,���쐼,2,48,,
2019/12/13,19:00:00,13,���k��,1.4,-8.2,90,0,0,13,���k��,2.3,46,,
2019/12/13,20:00:00,13,���k��,2,-8.1,92.5,0,0,12,��,3.2,52,,
2019/12/13,21:00:00,12,��,1.1,-8.5,90.1,0,0,13,���k��,3,7,,
2019/12/13,22:00:00,13,���k��,1.8,-10,92,0,0,13,���k��,3.1,8,,
2019/12/13,23:00:00,13,���k��,2.6,-8.2,93.6,0,0,13,���k��,3.2,56,,
2019/12/13,0:00:00,13,���k��,0.3,-7.8,92.2,0,0,13,���k��,3.3,36,,
2019/12/14,1:00:00,13,���k��,2,-5.7,90.1,0,0,13,���k��,3.4,47,,
2019/12/14,2:00:00,13,���k��,2.4,-4.1,86,0,0,13,���k��,4,44,,
2019/12/14,3:00:00,13,���k��,1.6,-3.6,86.2,0,0,13,���k��,3.3,18,,
2019/12/14,4:00:00,14,�k��,0.5,-5,88.3,0,0,12,��,3.1,8,,
2019/12/14,5:00:00,14,�k��,0.5,-3.3,88.9,0,0,12,��,2.5,31,,
2019/12/14,6:00:00,14,�k��,2.5,-1.7,88.2,0,0,14,�k��,4.2,59,,
2019/12/14,7:00:00,14,�k��,3.9,-2.4,91.4,0.5,0,14,�k��,6.7,51,,
2019/12/14,8:00:00,14,�k��,3.2,-2.3,92.4,0,0.02,14,�k��,6.9,21,,
2019/12/14,9:00:00,14,�k��,2.3,-1.8,94.3,0,0.04,14,�k��,5.3,14,,
2019/12/14,10:00:00,14,�k��,1.6,-1.4,93,0,0.09,14,�k��,4.7,8,,
2019/12/14,11:00:00,15,�k�k��,1.3,-0.6,90.3,0,0.18,14,�k��,3.6,4,,
2019/12/14,12:00:00,15,�k�k��,1.4,0.4,89.2,0.5,0.18,14,�k��,3.2,23,,
2019/12/14,13:00:00,13,���k��,0.5,0.9,85.8,0,0.14,1,�k�k��,3.3,11,,
2019/12/14,14:00:00,16,�k,0.6,1,87.3,0,0.1,12,��,2.4,35,,
2019/12/14,15:00:00,14,�k��,1.3,0.4,86.2,0,0.05,14,�k��,2.3,58,,
2019/12/14,16:00:00,15,�k�k��,1.6,0.2,87.7,0,0.01,14,�k��,3,17,,
2019/12/14,17:00:00,14,�k��,1.6,0.4,87.2,0,0,14,�k��,3.6,34,,
2019/12/14,18:00:00,16,�É�,0.2,0.3,91.1,0,0,15,�k�k��,2.9,6,,
2019/12/14,19:00:00,14,�k��,2.6,0.9,97.6,0,0,15,�k�k��,5.4,58,,
2019/12/14,20:00:00,15,�k�k��,5.3,0.7,98,1.5,0,14,�k��,12,51,,
2019/12/14,21:00:00,15,�k�k��,4.3,0.3,97.3,0.5,0,15,�k�k��,9.6,19,,
2019/12/14,22:00:00,16,�k,5.2,0.5,79.3,0,0,15,�k�k��,11.6,49,,
2019/12/14,23:00:00,15,�k�k��,2,-0.3,78.8,0,0,16,�k,9,9,,
2019/12/14,0:00:00,1,�k�k��,1.8,-0.6,79.1,0,0,15,�k�k��,4.8,8,,
2019/12/15,1:00:00,16,�k,2.1,-1.1,73.7,0,0,14,�k��,6.5,42,,
2019/12/15,2:00:00,15,�k�k��,4.8,-1.6,69.9,0,0,14,�k��,11.7,10,,
2019/12/15,3:00:00,15,�k�k��,5.4,-1.9,70.8,0,0,14,�k��,9.5,49,,
2019/12/15,4:00:00,15,�k�k��,3.1,-2.6,73,0,0,16,�k,10.5,3,,
2019/12/15,5:00:00,14,�k��,3.6,-2.7,70.8,0,0,14,�k��,7.4,43,,
2019/12/15,6:00:00,14,�k��,1.9,-4,72.6,0,0,15,�k�k��,7.2,15,,
2019/12/15,7:00:00,12,��,1.4,-7.6,92.3,0,0.01,14,�k��,2.8,3,,
2019/12/15,8:00:00,15,�k�k��,2.9,-2.4,65.4,0,0.1,14,�k��,7.8,31,,
2019/12/15,9:00:00,15,�k�k��,6.9,-1.3,57.9,0,0.26,15,�k�k��,14.1,55,,
2019/12/15,10:00:00,15,�k�k��,5.7,-0.7,55.2,0,0.39,16,�k,11.6,3,,
2019/12/15,11:00:00,15,�k�k��,4.5,0.4,52,0,0.48,15,�k�k��,11.9,22,,
2019/12/15,12:00:00,15,�k�k��,4,0.6,50.6,0,0.5,13,���k��,12.2,4,,
2019/12/15,13:00:00,15,�k�k��,4.4,0.5,50.6,0,0.46,14,�k��,9.8,23,,
2019/12/15,14:00:00,14,�k��,3.8,0.5,56.1,0,0.36,14,�k��,7.6,27,,
2019/12/15,15:00:00,14,�k��,3.5,0.2,52.1,0,0.19,14,�k��,7,40,,
2019/12/15,16:00:00,14,�k��,2,-2.4,65.2,0,0.06,14,�k��,5.6,12,,
2019/12/15,17:00:00,15,�k�k��,2.4,-3.3,64.6,0,0,15,�k�k��,4.4,40,,
2019/12/15,18:00:00,13,���k��,2.6,-4.1,70.4,0,0,14,�k��,5.1,30,,
2019/12/15,19:00:00,14,�k��,1.2,-3.9,72.8,0,0,14,�k��,4.2,17,,
2019/12/15,20:00:00,14,�k��,2.1,-6.2,73.6,0,0,15,�k�k��,2.7,47,,
2019/12/15,21:00:00,12,��,1.3,-7.1,84,0,0,14,�k��,2.5,3,,
2019/12/15,22:00:00,12,��,1.4,-9.1,86.9,0,0,13,���k��,2.6,46,,
2019/12/15,23:00:00,13,���k��,2.4,-9.5,91.6,0,0,13,���k��,2.9,58,,
2019/12/15,0:00:00,12,��,1.5,-10.8,91,0,0,12,��,2.5,0,,
2019/12/16,1:00:00,13,���k��,1.3,-9,91.1,0,0,13,���k��,2.7,1,,
2019/12/16,2:00:00,14,�k��,1.9,-8.6,91.5,0,0,13,���k��,2.7,40,,
2019/12/16,3:00:00,12,��,1.1,-8.3,87.6,0,0,14,�k��,2.5,0,,
2019/12/16,4:00:00,13,���k��,1.1,-8.3,89.1,0,0,14,�k��,3.8,9,,
2019/12/16,5:00:00,14,�k��,0.5,-8,87.2,0,0,13,���k��,3.5,35,,
2019/12/16,6:00:00,13,���k��,1.7,-8.8,88.3,0,0,13,���k��,3.1,40,,
2019/12/16,7:00:00,13,���k��,1.8,-8,89.4,0,0.01,13,���k��,3.2,59,,
2019/12/16,8:00:00,13,���k��,1.3,-7.6,86.3,0,0.04,14,�k��,3.8,41,,
2019/12/16,9:00:00,12,��,2.1,-5.3,85.8,0,0.15,13,���k��,3.5,12,,
2019/12/16,10:00:00,12,��,0.8,-1.8,73.9,0,0.36,11,���쐼,2.6,21,,
2019/12/16,11:00:00,7,��쓌,2,0.4,74.9,0,0.46,7,��쓌,3.6,27,,
2019/12/16,12:00:00,8,��,0.8,2,75.3,0,0.49,7,��쓌,3.1,14,,
2019/12/16,13:00:00,6,�쓌,0.7,4.7,73.1,0,0.46,6,�쓌,2.6,8,,
2019/12/16,14:00:00,8,��,2.8,6.1,62.4,0,0.36,10,�쐼,4.9,48,,
2019/12/16,15:00:00,7,��쓌,1,5.6,71.3,0,0.21,9,��쐼,4.2,7,,
2019/12/16,16:00:00,1,�k�k��,2.3,0.4,84.2,0,0.05,1,�k�k��,3.7,33,,
2019/12/16,17:00:00,-1.4,#N/A,94.7,0,0,,,,,,,,